{"data":{"norad_id":53469,"intl_designator":"2022-099E","name":"STARLINK-4399","alt_names":[],"object_type":"PAYLOAD","status":"ACTIVE","operator":null,"country":"US","launch_date":"2022-08-12","launch_site_code":"AFWTR","launch_vehicle":null,"mission":null,"orbit_class":"UNKNOWN","rcs_meters":null,"size_class":null,"mass_kg":null,"dimensions":null,"purposes":["comms"],"wikipedia_slug":null,"has_3d_model":false,"image_url":null,"decayed_at":null,"tle_current":{"epoch":"2026-09-20T14:11:15.963936Z","epoch_age_seconds":71145,"freshness":"FRESH","line1":"1 53469U 22099E   26263.59115699  .00000372  00000+0  13851-4 0  9996","line2":"2 53469  97.2860  21.3129 0000927  96.1761 263.9588 15.33437766225563","mean_motion":15.33437766,"eccentricity":9.27e-5,"inclination_deg":97.286,"raan_deg":21.3129,"arg_perigee_deg":96.1761,"mean_anomaly_deg":263.9588,"bstar":1.3851e-5,"rev_number":22556,"period_min":93.906647659805,"perigee_km":464.9302867098,"apogee_km":466.19910900458,"semimajor_km":6843.7016978572,"source":"CELESTRAK","updated_at":"2026-09-21T09:00:32.886664Z"}}}